This is the latest recevied weather packets stored in our database for station/object W4KAB. If no packets are shown the sender has not sent any weather packets the latest 10 day(s).
| Time | Temp. | Humidity | Pressure | Rain* | Wind** | Luminosity | Snow |
|---|---|---|---|---|---|---|---|
| 1778035874 | 20.56° C | 54% | 1015 hPa | 0 mm | - | 0 W/m² | - |
| 1778035572 | 20.56° C | 53% | 1015.2 hPa | 0 mm | - | 0 W/m² | - |
| 1778035267 | 20.56° C | 53% | 1015 hPa | 0 mm | - | 0 W/m² | - |
| 1778034963 | 20.56° C | 52% | 1015.1 hPa | 0 mm | - | 0 W/m² | - |
| 1778034661 | 20.56° C | 52% | 1015 hPa | 0 mm | - | 0 W/m² | - |
| 1778034358 | 20.56° C | 54% | 1015 hPa | 0 mm | - | 0 W/m² | - |
| 1778034056 | 20° C | 53% | 1015 hPa | 0 mm | - | 0 W/m² | - |
| 1778033753 | 20° C | 53% | 1014.8 hPa | 0 mm | - | 0 W/m² | - |
| 1778033450 | 20° C | 54% | 1015.3 hPa | 0 mm | - | 0 W/m² | - |
| 1778033148 | 20° C | 57% | 1015.2 hPa | 0 mm | - | 0 W/m² | - |
| 1778032845 | 20° C | 53% | 1015.3 hPa | 0 mm | - | 0 W/m² | - |
| 1778032543 | 20° C | 55% | 1015.2 hPa | 0 mm | - | 0 W/m² | - |
| 1778032239 | 19.44° C | 56% | 1015.2 hPa | 0 mm | - | 0 W/m² | - |
| 1778031937 | 19.44° C | 57% | 1015.2 hPa | 0 mm | - | 0 W/m² | - |
| 1778031632 | 19.44° C | 56% | 1015.2 hPa | 0 mm | - | 0 W/m² | - |
| 1778031331 | 19.44° C | 56% | 1015.2 hPa | 0 mm | - | 0 W/m² | - |
| 1778031027 | 19.44° C | 57% | 1015.1 hPa | 0 mm | - | 0 W/m² | - |
| 1778030723 | 18.89° C | 56% | 1015.2 hPa | 0 mm | - | 0 W/m² | - |
| 1778030420 | 18.89° C | 56% | 1015.1 hPa | 0 mm | - | 0 W/m² | - |
| 1778030118 | 19.44° C | 55% | 1015.2 hPa | 0 mm | - | 0 W/m² | - |
| 1778029814 | 19.44° C | 55% | 1015.2 hPa | 0 mm | - | 0 W/m² | - |
| 1778029508 | 18.89° C | 55% | 1014.9 hPa | 0 mm | - | 0 W/m² | - |
| 1778029204 | 18.89° C | 55% | 1015 hPa | 0 mm | - | 0 W/m² | - |
| 1778028901 | 18.89° C | 55% | 1015.2 hPa | 0 mm | - | 0 W/m² | - |
| 1778028596 | 19.44° C | 55% | 1015.2 hPa | 0 mm | - | 0 W/m² | - |
* Rain latest hour (hover to see other rain measurements)
** Current wind speed in m/s (hover to see current wind gust speed)